GW0058 Weather Reports


Display with metric or nautical units.
time (UTC)temp
F
wind
direction
speed
MPH
gust
MPH
rain 1hr
in
rain 24hr
in
rain mn
in
humidity
%
barometer
mb
20260901054049 81 0 3.0 7.0 0.00 0.00 0.00 68 1017.0
20260901053550 81 144 3.0 9.0 0.00 0.00 0.00 68 1017.1
20260901053101 81 128 3.0 9.0 0.00 0.00 0.00 68 1017.0
20260901052550 82 146 3.0 9.0 0.00 0.00 0.00 68 1017.1
20260901052047 82 136 3.0 8.0 0.00 0.00 0.00 68 1017.1
20260901051618 82 135 3.0 8.0 0.00 0.00 0.00 68 1017.0
20260901051046 82 152 2.0 8.0 0.00 0.00 0.00 67 1017.0
20260901050546 82 139 3.0 8.0 0.00 0.00 0.00 67 1016.9
20260901050104 82 161 3.0 10.0 0.00 0.00 0.00 67 1016.8
20260901045548 83 148 3.0 10.0 0.00 0.00 0.00 67 1016.8
20260901045047 83 167 3.0 10.0 0.00 0.00 0.00 67 1016.9
20260901044556 83 145 4.0 10.0 0.00 0.00 0.00 66 1016.9
20260901044046 83 169 4.0 10.0 0.00 0.00 0.00 66 1017.0
20260901043547 83 150 4.0 10.0 0.00 0.00 0.00 66 1016.9
20260901043103 83 146 3.0 8.0 0.00 0.00 0.00 65 1016.8
20260901042550 84 162 3.0 8.0 0.00 0.00 0.00 65 1016.8
20260901042046 84 150 4.0 9.0 0.00 0.00 0.00 65 1016.8
20260901041553 84 157 2.0 9.0 0.00 0.00 0.00 65 1016.8
20260901041046 84 130 4.0 9.0 0.00 0.00 0.00 64 1016.8
20260901040548 84 144 3.0 9.0 0.00 0.00 0.00 64 1016.7
20260901035549 84 128 4.0 14.0 0.00 0.00 0.00 63 1016.6
20260901035046 84 110 6.0 15.0 0.00 0.00 0.00 63 1016.7
20260901034607 84 142 5.0 15.0 0.00 0.00 0.00 62 1016.5
20260901034049 84 132 6.0 14.0 0.00 0.00 0.00 62 1016.6
20260901033546 84 153 3.0 8.0 0.00 0.00 0.00 60 1016.6
20260901033110 84 98 2.0 5.0 0.00 0.00 0.00 60 1016.5
20260901032549 84 148 2.0 5.0 0.00 0.00 0.00 60 1016.4
20260901032047 85 0 0.0 5.0 0.00 0.00 0.00 59 1016.4
20260901031554 85 155 0.0 3.0 0.00 0.00 0.00 59 1016.3
20260901031046 85 55 0.0 4.0 0.00 0.00 0.00 58 1016.1
20260901030546 85 0 1.0 4.0 0.00 0.00 0.00 58 1015.9
20260901025546 85 137 0.0 2.0 0.00 0.00 0.00 57 1015.8
20260901025049 86 0 0.0 2.0 0.00 0.00 0.00 57 1015.7
20260901024602 86 130 0.0 3.0 0.00 0.00 0.00 56 1015.7
20260901024046 86 0 0.0 3.0 0.00 0.00 0.00 56 1015.7
20260901023549 86 0 0.0 3.0 0.00 0.00 0.00 56 1015.6
20260901023057 86 0 0.0 2.0 0.00 0.00 0.00 55 1015.4
20260901022546 87 123 0.0 2.0 0.00 0.00 0.00 55 1015.3
20260901022046 87 142 0.0 3.0 0.00 0.00 0.00 54 1015.3
20260901021605 87 126 1.0 3.0 0.00 0.00 0.00 54 1015.3
20260901021046 87 138 0.0 3.0 0.00 0.00 0.00 54 1015.1
20260901020546 87 0 0.0 5.0 0.00 0.00 0.00 53 1015.1
20260901020054 87 155 1.0 5.0 0.00 0.00 0.00 53 1015.1
20260901015547 87 159 0.0 6.0 0.00 0.00 0.00 52 1015.0
20260901015046 87 141 1.0 6.0 0.00 0.00 0.00 51 1015.0
20260901014605 88 80 1.0 7.0 0.00 0.00 0.00 50 1014.9
20260901014046 88 146 2.0 7.0 0.00 0.00 0.00 49 1014.9
20260901013549 89 0 0.0 0.0 0.00 0.00 0.00 48 1014.8
20260901013058 89 0 0.0 0.0 0.00 0.00 0.00 47 1014.7
20260901012546 89 0 0.0 0.0 0.00 0.00 0.00 46 1014.6
20260901012049 89 0 0.0 0.0 0.00 0.00 0.00 46 1014.6
20260901011555 89 0 0.0 0.0 0.00 0.00 0.00 45 1014.6
20260901011046 89 0 0.0 0.0 0.00 0.00 0.00 46 1014.5
20260901010549 89 0 0.0 0.0 0.00 0.00 0.00 45 1014.5
20260901010054 89 0 0.0 2.0 0.00 0.00 0.00 45 1014.5
20260901005546 90 0 0.0 2.0 0.00 0.00 0.00 45 1014.5
20260901005046 90 132 0.0 2.0 0.00 0.00 0.00 45 1014.4
20260901004609 91 0 1.0 4.0 0.00 0.00 0.00 44 1014.5
20260901004049 91 0 0.0 6.0 0.00 0.00 0.00 43 1014.5
20260901003552 92 150 2.0 6.0 0.00 0.00 0.00 42 1014.4
20260901003100 92 0 0.0 6.0 0.00 0.00 0.00 42 1014.5
20260901002548 92 169 1.0 6.0 0.00 0.00 0.00 42 1014.5
20260901002047 93 173 1.0 6.0 0.00 0.00 0.00 41 1014.4
20260901001559 93 155 2.0 6.0 0.00 0.00 0.00 41 1014.3
20260901001046 93 124 1.0 6.0 0.00 0.00 0.00 40 1014.2
20260901000546 93 147 2.0 6.0 0.00 0.00 0.00 39 1014.1
20260901000110 94 137 2.0 8.0 0.00 0.00 0.00 39 1014.2
20260831235547 94 132 4.0 8.0 0.00 0.00 0.00 38 1014.1
20260831235046 94 146 2.0 9.0 0.00 0.00 0.00 37 1014.1
20260831234601 94 180 4.0 10.0 0.00 0.00 0.00 36 1014.2
20260831234047 94 140 4.0 10.0 0.00 0.00 0.00 36 1014.2
20260831233546 95 142 3.0 9.0 0.00 0.00 0.00 37 1014.1
20260831233058 95 178 4.0 9.0 0.00 0.00 0.00 36 1014.2
20260831232546 96 136 1.0 7.0 0.00 0.00 0.00 36 1014.2
20260831232046 96 103 1.0 7.0 0.00 0.00 0.00 36 1014.2
20260831231608 95 157 3.0 7.0 0.00 0.00 0.00 36 1014.3
20260831231047 95 149 2.0 8.0 0.00 0.00 0.00 36 1014.2
20260831230549 96 147 1.0 11.0 0.00 0.00 0.00 37 1014.3
20260831225547 96 154 3.0 9.0 0.00 0.00 0.00 36 1014.4
20260831225047 96 136 3.0 8.0 0.00 0.00 0.00 36 1014.3
20260831224600 96 141 1.0 7.0 0.00 0.00 0.00 37 1014.3
20260831224046 95 190 2.0 11.0 0.00 0.00 0.00 37 1014.5
20260831223551 95 169 4.0 12.0 0.00 0.00 0.00 38 1014.6
20260831223055 95 103 4.0 12.0 0.00 0.00 0.00 38 1014.5
20260831222546 95 157 6.0 12.0 0.00 0.00 0.00 37 1014.6
20260831222046 96 178 3.0 9.0 0.00 0.00 0.00 37 1014.6
20260831221559 96 101 4.0 9.0 0.00 0.00 0.00 38 1014.7
20260831221052 96 192 3.0 7.0 0.00 0.00 0.00 38 1014.6
20260831220547 96 167 4.0 11.0 0.00 0.00 0.00 38 1014.7
20260831220105 95 157 4.0 11.0 0.00 0.00 0.00 39 1014.7
20260831215547 94 154 4.0 10.0 0.00 0.00 0.00 40 1014.7
20260831215047 96 185 3.0 13.0 0.00 0.00 0.00 40 1014.8
20260831214607 96 138 5.0 13.0 0.00 0.00 0.00 38 1014.9
20260831214049 97 163 3.0 11.0 0.00 0.00 0.00 40 1014.9
20260831213546 96 190 4.0 12.0 0.00 0.00 0.00 39 1015.0
20260831213109 96 151 7.0 12.0 0.00 0.00 0.00 39 1015.1
20260831212546 95 142 3.0 11.0 0.00 0.00 0.00 42 1015.1
20260831212049 95 107 5.0 12.0 0.00 0.00 0.00 41 1015.2
20260831211601 96 205 6.0 11.0 0.00 0.00 0.00 39 1015.4
20260831211050 97 95 2.0 9.0 0.00 0.00 0.00 39 1015.4
20260831210548 95 146 3.0 9.0 0.00 0.00 0.00 42 1015.5
20260831210056 94 185 4.0 9.0 0.00 0.00 0.00 45 1015.6
20260831205550 93 162 2.0 11.0 0.00 0.00 0.00 44 1015.8
20260831205050 95 130 3.0 11.0 0.00 0.00 0.00 41 1015.8
20260831204605 96 166 5.0 11.0 0.00 0.00 0.00 41 1016.0
20260831204050 95 178 3.0 10.0 0.00 0.00 0.00 43 1015.9
20260831203552 96 88 2.0 10.0 0.00 0.00 0.00 45 1016.1
20260831203107 95 125 3.0 10.0 0.00 0.00 0.00 41 1016.1
20260831202549 96 178 4.0 12.0 0.00 0.00 0.00 43 1016.2
20260831202050 95 32 5.0 12.0 0.00 0.00 0.00 44 1016.3
20260831201559 94 157 3.0 12.0 0.00 0.00 0.00 46 1016.4
20260831201051 95 196 5.0 12.0 0.00 0.00 0.00 44 1016.6
20260831200547 95 73 5.0 11.0 0.00 0.00 0.00 44 1016.7
20260831200100 96 178 3.0 10.0 0.00 0.00 0.00 42 1016.7
20260831195550 96 153 3.0 9.0 0.00 0.00 0.00 44 1016.7
20260831195050 96 123 2.0 9.0 0.00 0.00 0.00 44 1016.8
20260831194639 94 142 5.0 13.0 0.00 0.00 0.00 45 1016.9
20260831194050 94 190 5.0 13.0 0.00 0.00 0.00 46 1017.0
20260831193548 95 189 5.0 13.0 0.00 0.00 0.00 43 1017.0
20260831193107 94 173 5.0 10.0 0.00 0.00 0.00 46 1017.1
20260831192550 95 136 5.0 10.0 0.00 0.00 0.00 45 1017.2
20260831192050 93 226 3.0 13.0 0.00 0.00 0.00 49 1017.2
20260831191608 94 174 5.0 13.0 0.00 0.00 0.00 46 1017.3
20260831191049 94 178 2.0 13.0 0.00 0.00 0.00 47 1017.3
20260831190550 94 103 5.0 13.0 0.00 0.00 0.00 47 1017.5
20260831190125 94 153 5.0 11.0 0.00 0.00 0.00 44 1017.5
20260831185552 94 90 3.0 9.0 0.00 0.00 0.00 45 1017.4
20260831185049 94 142 3.0 14.0 0.00 0.00 0.00 48 1017.6
20260831184611 93 176 2.0 14.0 0.00 0.00 0.00 48 1017.7
20260831184049 93 152 5.0 14.0 0.00 0.00 0.00 49 1017.7
20260831183549 92 188 3.0 10.0 0.00 0.00 0.00 48 1017.7
20260831183056 93 158 5.0 14.0 0.00 0.00 0.00 47 1017.7
20260831182551 92 189 6.0 14.0 0.00 0.00 0.00 48 1017.8
20260831182049 93 178 3.0 8.0 0.00 0.00 0.00 50 1017.9
20260831181601 92 213 2.0 11.0 0.00 0.00 0.00 50 1017.9
20260831181049 92 132 4.0 11.0 0.00 0.00 0.00 50 1018.0
20260831180549 92 155 3.0 11.0 0.00 0.00 0.00 50 1018.0
20260831180109 92 194 4.0 11.0 0.00 0.00 0.00 51 1018.2
20260831175546 91 134 5.0 11.0 0.00 0.00 0.00 51 1018.2
20260831175046 91 115 4.0 11.0 0.00 0.00 0.00 51 1018.2
20260831174618 90 159 5.0 13.0 0.00 0.00 0.00 54 1018.3
20260831174049 91 146 6.0 13.0 0.00 0.00 0.00 52 1018.4
20260831173551 91 169 3.0 9.0 0.00 0.00 0.00 52 1018.3
20260831173055 91 171 3.0 9.0 0.00 0.00 0.00 54 1018.4
20260831172548 90 161 3.0 9.0 0.00 0.00 0.00 55 1018.4
20260831172049 92 150 3.0 11.0 0.00 0.00 0.00 53 1018.4
20260831171603 91 151 4.0 11.0 0.00 0.00 0.00 54 1018.5
20260831171049 91 169 3.0 9.0 0.00 0.00 0.00 53 1018.5
20260831170549 91 159 4.0 12.0 0.00 0.00 0.00 56 1018.6
20260831170059 90 154 4.0 12.0 0.00 0.00 0.00 54 1018.6
20260831165548 90 180 2.0 7.0 0.00 0.00 0.00 56 1018.7
20260831165052 88 212 3.0 8.0 0.00 0.00 0.00 60 1018.8
20260831164558 88 217 2.0 9.0 0.00 0.00 0.00 60 1018.7
20260831164049 89 180 3.0 9.0 0.00 0.00 0.00 58 1018.7
20260831163549 89 83 3.0 10.0 0.00 0.00 0.00 59 1018.7
20260831163054 88 80 4.0 12.0 0.00 0.00 0.00 61 1018.7
20260831162549 88 184 4.0 12.0 0.00 0.00 0.00 63 1018.8
20260831162048 87 145 6.0 12.0 0.00 0.00 0.00 63 1018.8
20260831161604 86 227 2.0 7.0 0.00 0.00 0.00 66 1018.7
20260831161050 85 106 1.0 9.0 0.00 0.00 0.00 69 1018.7
20260831160549 86 157 3.0 11.0 0.00 0.00 0.00 67 1018.7
20260831160056 86 167 3.0 11.0 0.00 0.00 0.00 63 1018.7
20260831155549 87 148 5.0 11.0 0.00 0.00 0.00 65 1018.7
20260831155049 87 166 4.0 10.0 0.00 0.00 0.00 65 1018.6
20260831154629 88 148 3.0 9.0 0.00 0.00 0.00 63 1018.5
20260831154048 87 132 3.0 9.0 0.00 0.00 0.00 66 1018.5
20260831153551 86 214 3.0 9.0 0.00 0.00 0.00 70 1018.5
20260831153118 85 187 3.0 9.0 0.00 0.00 0.00 70 1018.4
20260831152546 85 137 4.0 9.0 0.00 0.00 0.00 72 1018.5
20260831152049 84 153 4.0 9.0 0.00 0.00 0.00 71 1018.4
20260831151610 84 165 4.0 12.0 0.00 0.00 0.00 72 1018.3
20260831151046 84 190 5.0 12.0 0.00 0.00 0.00 73 1018.2
20260831150549 84 119 5.0 9.0 0.00 0.00 0.00 72 1018.3
20260831150106 84 254 4.0 10.0 0.00 0.00 0.00 73 1018.3
20260831145549 84 157 4.0 11.0 0.00 0.00 0.00 74 1018.3
20260831145049 83 146 4.0 12.0 0.00 0.00 0.00 76 1018.1
20260831144604 82 190 4.0 12.0 0.00 0.00 0.00 79 1018.2
20260831144049 81 236 3.0 9.0 0.00 0.00 0.00 79 1018.1
20260831143546 81 174 4.0 11.0 0.00 0.00 0.00 79 1018.1
20260831143103 82 136 5.0 11.0 0.00 0.00 0.00 78 1018.1
20260831142550 82 184 4.0 9.0 0.00 0.00 0.00 79 1018.1
20260831142045 82 157 3.0 9.0 0.00 0.00 0.00 81 1018.0
20260831141607 81 175 3.0 10.0 0.00 0.00 0.00 82 1018.0
20260831141048 80 207 5.0 10.0 0.00 0.00 0.00 84 1018.0
20260831140549 80 144 3.0 10.0 0.00 0.00 0.00 86 1017.9
20260831140055 79 188 3.0 10.0 0.00 0.00 0.00 87 1017.9
20260831135549 79 150 4.0 9.0 0.00 0.00 0.00 89 1017.9
20260831135049 78 180 2.0 9.0 0.00 0.00 0.00 90 1017.8
20260831134601 78 201 3.0 8.0 0.00 0.00 0.00 90 1017.8
20260831134048 78 144 3.0 8.0 0.00 0.00 0.00 91 1017.7
20260831133549 77 173 2.0 7.0 0.00 0.00 0.00 91 1017.8
20260831133107 77 140 3.0 7.0 0.00 0.00 0.00 91 1017.7
20260831132546 77 148 2.0 7.0 0.00 0.00 0.00 91 1017.7
20260831132047 77 169 2.0 7.0 0.00 0.00 0.00 91 1017.7
20260831131600 76 137 1.0 5.0 0.00 0.00 0.00 91 1017.6
20260831131049 76 183 1.0 5.0 0.00 0.00 0.00 91 1017.7
20260831130549 76 243 0.0 2.0 0.00 0.00 0.00 91 1017.6
20260831130058 76 155 0.0 2.0 0.00 0.00 0.00 91 1017.4
20260831125549 76 153 0.0 3.0 0.00 0.00 0.00 91 1017.5
20260831125046 76 0 0.0 3.0 0.00 0.00 0.00 91 1017.4
20260831124606 76 0 0.0 2.0 0.00 0.00 0.00 91 1017.4
20260831124049 76 0 0.0 2.0 0.00 0.00 0.00 90 1017.4
20260831123549 76 0 0.0 3.0 0.00 0.00 0.00 90 1017.4
20260831123102 76 0 0.0 3.0 0.00 0.00 0.00 90 1017.4
20260831122552 76 0 1.0 3.0 0.00 0.00 0.00 90 1017.3
20260831122050 76 140 0.0 4.0 0.00 0.00 0.00 90 1017.4
20260831121632 76 0 0.0 4.0 0.00 0.00 0.00 90 1017.3
20260831121050 76 135 1.0 4.0 0.00 0.00 0.00 90 1017.3
20260831120549 76 0 0.0 5.0 0.00 0.00 0.00 90 1017.2
20260831120108 76 165 0.0 5.0 0.00 0.00 0.00 90 1017.1
20260831115551 76 160 0.0 5.0 0.00 0.00 0.00 90 1017.2
20260831115049 76 0 0.0 5.0 0.00 0.00 0.00 90 1017.1
20260831114606 77 0 0.0 5.0 0.00 0.00 0.00 90 1017.2
20260831114049 77 0 1.0 7.0 0.00 0.00 0.00 89 1017.2
20260831113546 77 163 0.0 7.0 0.00 0.00 0.00 89 1017.0
20260831113108 77 209 0.0 3.0 0.00 0.00 0.00 89 1016.9
20260831112551 77 175 1.0 6.0 0.00 0.00 0.00 89 1017.0
20260831112049 77 169 1.0 6.0 0.00 0.00 0.00 89 1017.0
20260831111604 77 0 0.0 4.0 0.00 0.00 0.00 89 1017.0
20260831111049 77 0 1.0 6.0 0.00 0.00 0.00 89 1017.0
20260831110548 77 177 1.0 6.0 0.00 0.00 0.00 89 1017.0
20260831110106 77 186 2.0 8.0 0.00 0.00 0.00 89 1017.0
20260831105549 77 200 2.0 8.0 0.00 0.00 0.00 89 1016.9
20260831105049 77 178 2.0 6.0 0.00 0.00 0.00 89 1016.9
20260831104603 77 185 1.0 7.0 0.00 0.00 0.00 89 1017.0
20260831104045 77 178 2.0 7.0 0.00 0.00 0.00 89 1017.0
20260831103548 77 205 2.0 7.0 0.00 0.00 0.00 89 1017.0
20260831103109 77 206 1.0 4.0 0.00 0.00 0.00 89 1017.1
20260831102546 77 134 1.0 4.0 0.00 0.00 0.00 88 1017.0
20260831102046 77 194 1.0 5.0 0.00 0.00 0.00 88 1017.0
20260831101601 77 152 2.0 5.0 0.00 0.00 0.00 88 1017.0
20260831101048 77 165 2.0 7.0 0.00 0.00 0.00 88 1017.0
20260831100551 77 159 2.0 7.0 0.00 0.00 0.00 88 1017.1
20260831100104 77 182 1.0 6.0 0.00 0.00 0.00 88 1017.1
20260831095550 77 0 1.0 6.0 0.00 0.00 0.00 88 1017.1
20260831095046 77 169 2.0 5.0 0.00 0.00 0.00 88 1017.1
20260831094606 77 0 0.0 3.0 0.00 0.00 0.00 88 1017.1
20260831094046 77 137 1.0 5.0 0.00 0.00 0.00 88 1017.1
20260831093546 77 151 1.0 6.0 0.00 0.00 0.00 87 1017.1
20260831093149 77 0 2.0 6.0 0.00 0.00 0.00 87 1017.0
20260831092549 77 178 2.0 5.0 0.00 0.00 0.00 87 1017.1
20260831092049 77 140 2.0 6.0 0.00 0.00 0.00 87 1017.1
20260831091556 77 170 2.0 6.0 0.00 0.00 0.00 87 1017.0
20260831091049 77 138 2.0 5.0 0.00 0.00 0.00 87 1017.0
20260831090549 77 133 1.0 5.0 0.00 0.00 0.00 87 1017.0
20260831090100 77 159 2.0 7.0 0.00 0.00 0.00 87 1017.1
20260831085549 77 173 2.0 7.0 0.00 0.00 0.00 87 1017.0
20260831085049 77 159 1.0 6.0 0.00 0.00 0.00 87 1017.0
20260831084638 77 188 1.0 6.0 0.00 0.00 0.00 87 1017.1
20260831084049 77 159 2.0 5.0 0.00 0.00 0.00 87 1017.1
20260831083550 77 174 2.0 4.0 0.00 0.00 0.00 87 1017.0
20260831083109 76 0 2.0 6.0 0.00 0.00 0.00 86 1017.1
20260831082552 76 149 1.0 6.0 0.00 0.00 0.00 86 1017.1
20260831082050 76 162 1.0 4.0 0.00 0.00 0.00 85 1017.1
20260831081558 76 145 1.0 5.0 0.00 0.00 0.00 84 1017.2
20260831081050 76 0 0.0 5.0 0.00 0.00 0.00 84 1017.1
20260831080549 76 140 0.0 3.0 0.00 0.00 0.00 83 1017.2
20260831080117 76 0 0.0 1.0 0.00 0.00 0.00 83 1017.2
20260831075549 76 167 0.0 1.0 0.00 0.00 0.00 82 1017.2
20260831075049 77 0 0.0 1.0 0.00 0.00 0.00 82 1017.2
20260831074604 77 0 0.0 0.0 0.00 0.00 0.00 81 1017.2
20260831074052 77 0 0.0 3.0 0.00 0.00 0.00 81 1017.1
20260831073546 77 0 0.0 3.0 0.00 0.00 0.00 81 1017.1
20260831073059 77 167 0.0 5.0 0.00 0.00 0.00 81 1017.2
20260831072551 77 0 0.0 5.0 0.00 0.00 0.00 81 1017.2
20260831072049 77 0 1.0 5.0 0.00 0.00 0.00 80 1017.2
20260831071608 78 145 0.0 5.0 0.00 0.00 0.00 80 1017.2
20260831071049 78 0 1.0 5.0 0.00 0.00 0.00 79 1017.2
20260831070548 78 0 0.0 2.0 0.00 0.00 0.00 79 1017.2
20260831070057 78 0 0.0 4.0 0.00 0.00 0.00 79 1017.3
20260831065553 78 159 0.0 4.0 0.00 0.00 0.00 79 1017.3
20260831065049 78 142 1.0 4.0 0.00 0.00 0.00 78 1017.3
20260831064606 78 201 1.0 4.0 0.00 0.00 0.00 78 1017.4
20260831064046 78 169 1.0 10.0 0.00 0.00 0.00 78 1017.5
20260831063546 79 178 2.0 10.0 0.00 0.00 0.00 77 1017.5
20260831063111 79 0 2.0 6.0 0.00 0.00 0.00 77 1017.4
20260831062546 79 0 0.0 4.0 0.00 0.00 0.00 77 1017.4
20260831062050 79 0 0.0 5.0 0.00 0.00 0.00 77 1017.4
20260831061558 79 154 1.0 7.0 0.00 0.00 0.00 76 1017.4
20260831061050 79 159 2.0 7.0 0.00 0.00 0.00 76 1017.4
20260831060549 79 155 1.0 6.0 0.00 0.00 0.00 76 1017.4
20260831060127 79 133 2.0 7.0 0.00 0.00 0.00 76 1017.3
20260831055551 79 138 1.0 9.0 0.00 0.00 0.00 75 1017.2
20260831055049 80 148 3.0 9.0 0.00 0.00 0.00 75 1017.2
20260831054556 80 167 1.0 4.0 0.00 0.00 0.00 75 1017.1